Flag for Norway Weather past 2 weeks in Kongsberg, Norway

Now
39 °F

Passing clouds.


Feels Like: 28 °F
Forecast: 2 / 13 °F
Wind: 24 mph from Southeast

Location: Oseberg

Current Time: Dec 27, 2014 at 7:41:04 PM

Latest Report: Dec 27, 2014 at 6:50 PM


Visibility: N/A

Pressure: 30.01 "Hg

Humidity: 81%

Dew point: 34 °F

Location of KongsbergLocation

Historic Weather in Kongsberg — Graph

°F

Kongsberg temperature yesterday

Maximum temperature yesterday: 41 °F (at 12:50 AM)
Minimum temperature yesterday: 36 °F (at 7:50 AM)
Average temperature yesterday: 39 °F

Past Weeks' High & Low Weather Summary

 TemperatureHumidityPressure
High48 °F (Dec 21, 3:03 PM)100% (Dec 15, 4:20 PM)30.21 "Hg (Dec 15, 4:20 PM)
Low32 °F (Dec 15, 3:50 PM)36% (Dec 15, 12:50 PM)28.82 "Hg (Dec 12, 6:20 PM)
Average41 °F75%29.35 "Hg
* Reported Dec 12 6:20 PM — Dec 27 6:20 PM, Kongsberg, Weather by CustomWeather, © 2014

Note: Actual official high and low records may vary slightly from our data, if they occured in-between our weather recording intervals... More about our weather records

Advertising

Kongsberg weather history for previous 24 hours

 ConditionsComfort  
Time TempWeatherWind HumidityBarometerVisibility
6:20 PM
Dec 27
39 °FPassing clouds.24 mph81%29.98 "HgN/A
5:50 PM39 °FSprinkles. Passing clouds.26 mph81%29.98 "HgN/A
5:20 PM39 °FPassing clouds.25 mph81%29.95 "HgN/A
4:20 PM39 °FScattered showers. Passing clouds.26 mph81%29.95 "HgN/A
3:20 PM39 °FScattered showers. Scattered clouds.18 mph87%29.92 "HgN/A
2:50 PM39 °FSprinkles. Partly sunny.17 mph87%29.92 "HgN/A
1:50 PM37 °FSprinkles. Scattered clouds.18 mph81%29.89 "HgN/A
1:20 PM39 °FScattered showers. Scattered clouds.20 mph81%29.86 "HgN/A
12:50 PM39 °FScattered clouds.17 mph81%29.86 "HgN/A
10:50 AM39 °FPartly sunny.17 mph81%29.83 "HgN/A
10:20 AM41 °FScattered clouds.16 mph76%29.83 "HgN/A
9:20 AM41 °FScattered clouds.15 mph66%29.83 "HgN/A
8:20 AM39 °FPassing clouds.13 mph70%29.83 "HgN/A
7:50 AM39 °FPassing clouds.9 mph75%29.83 "HgN/A
7:20 AM39 °FLight rain. Passing clouds.10 mph75%29.83 "HgN/A
6:50 AM39 °FLight rain. Partly cloudy.15 mph75%29.83 "HgN/A
5:50 AM39 °FPassing clouds.15 mph75%29.83 "HgN/A
4:50 AM39 °FPassing clouds.16 mph65%29.83 "HgN/A
3:50 AM39 °FPassing clouds.13 mph61%29.86 "HgN/A
2:50 AM39 °FPassing clouds.10 mph56%29.86 "HgN/A
1:50 AM39 °FPassing clouds.13 mph56%29.89 "HgN/A
12:50 AM39 °FPassing clouds.13 mph56%29.92 "HgN/A
11:50 PM
Dec 26
39 °FPassing clouds.12 mph56%29.92 "HgN/A
10:50 PM39 °FPassing clouds.9 mph56%29.92 "HgN/A
9:50 PM39 °FPassing clouds.9 mph61%29.95 "HgN/A
9:20 PM39 °FPassing clouds.10 mph61%29.95 "HgN/A
8:50 PM39 °FPassing clouds.9 mph61%29.95 "HgN/A
7:50 PM39 °FPassing clouds.12 mph65%29.98 "HgN/A
7:20 PM39 °FPassing clouds.14 mph70%29.98 "HgN/A
Weather by CustomWeather, © 2014

See weather overviewHow to use our weather pages